Probability
0 0 0 0 0 0 0 0 0 0 0 0 0 0 0 1 0 0 0 0 0 0 0 0 0 0 0 0 0 0 0 0 0 0 0 0 0 0 0 0 0 0 0
0 0 0 0 0 0 0 0 0 0 0 0 0 0 0 1 0 0 0 0 0 0 0 0 0 0 0 0 0 0 0 0 0 0 0 0 0 0 0 0 0 0 0
0 0 0 0 0 0 0 0 0 0 0 0 0 0 0 0 0 0 0 0 0 0 0 0 0 0 0 0 0 0 0 0 0 0 0 0 0 0 0 0 0 0 0
0 0 0 0 0 0 0 0 0 0 0 0 0 0 0 0 0 0 0 0 0 0 0 0 0 0 0 0 0 0 0 0 0 0 0 0 0 0 0 0 0 0 0
0 0 0 0 0 0 0 0 0 0 0 0 0 0 0 0 0 0 0 0 0 0 0 0 0 0 0 0 0 0 0 0 0 0 0 0 0 0 0 0 0 0 0
0 0 0 0 0 0 0 0 0 0 0 0 0 0 0 0 0 0 0 0 0 0 0 0 0 0 0 0 0 0 0 0 0 0 0 0 0 0 0 0 0 0 0
0 0 0 0 0 0 0 0 0 0 0 0 0 0 0 0 0 0 0 0 0 0 0 0 0 0 0 0 0 0 0 0 0 0 0 0 0 0 0 0 0 0 0
0 0 0 0 0 0 0 0 0 0 0 0 0 0 0 0 0 0 0 0 0 0 0 0 0 0 0 0 0 0 0 0 0 0 0 0 0 0 0 0 0 0 0
0 0 0 0 0 0 0 0 0 0 0 0 0 0 0 0 0 0 0 0 0 0 0 0 0 0 0 0 0 0 0 0 0 0 0 0 0 0 0 0 0 0 0
0 0 0 0 0 0 0 0 0 0 0 0 0 0 0 0 0 0 0 0 0 0 0 0 0 0 0 0 0 0 0 0 0 0 0 0 0 0 0 0 0 0 0
0 0 0 0 0 0 0 0 0 0 0 0 0 0 0 0 0 0 0 0 0 0 0 0 0 0 0 0 0 0 0 0 0 0 0 0 0 0 0 0 0 0 0
0 0 0 0 0 0 0 0 0 0 0 0 0 0 0 0 0 0 0 0 0 0 0 0 0 0 0 0 0 0 0 0 0 0 0 0 0 0 0 0 0 0 0
0 0 0 0 0 0 0 0 0 0 0 0 0 0 0 0 0 0 0 0 0 0 0 0 0 0 0 0 0 0 0 0 0 0 0 0 0 0 0 0 0 0 0
0 0 0 0 0 0 0 0 0 0 0 0 0 0 0 0 0 0 0 0 0 0 0 0 0 0 0 0 0 0 0 0 0 0 0 0 0 0 0 0 0 0 0
0 0 0 0 0 0 0 0 0 0 0 0 0 0 0 0 0 0 0 0 0 0 0 0 0 0 0 0 0 0 0 0 0 0 0 0 0 0 0 0 0 0 0
0 0 0 0 0 0 0 0 0 0 0 0 0 0 0 0 0 0 0 0 0 0 0 0 0 0 0 0 0 0 0 0 0 0 0 0 0 0 0 0 0 0 0
0 0 0 0 0 0 0 0 0 0 0 0 0 0 0 0 0 0 0 0 0 0 0 0 0 0 0 0 0 0 0 0 0 0 0 0 0 0 0 0 0 0 0
0 0 0 0 0 0 0 0 0 0 0 0 0 0 0 0 0 0 0 0 0 0 0 0 0 0 0 0 0 0 0 0 0 0 0 0 0 0 0 0 0 0 0
0 0 0 0 0 0 0 0 0 0 0 0 0 0 0 0 0 0 0 0 0 0 0 0 0 0 0 0 0 0 0 0 0 0 0 0 0 0 0 0 0 0 0
0 0 0 0 0 0 0 0 0 0 0 0 0 0 0 0 0 0 0 0 0 0 0 0 0 0 0 0 0 0 0 0 0 0 0 0 0 0 0 0 0 0 0
0 0 0 0 0 0 0 0 0 0 0 0 0 0 0 0 0 0 0 0 0 0 0 0 0 0 0 0 0 0 0 0 0 0 0 0 0 0 0 0 0 0 0
0 0 0 0 0 0 0 0 0 0 0 0 0 0 0 0 0 0 0 0 0 0 0 0 0 0 0 0 0 0 0 0 0 0 0 0 0 0 0 0 0 0 0
0 0 0 0 0 0 0 0 0 0 0 0 0 0 0 0 0 0 0 0 0 0 0 0 0 0 0 0 0 0 0 0 0 0 0 0 0 0 0 0 0 0 0
0 0 0 0 0 0 0 0 0 0 0 0 0 0 0 0 0 0 0 0 0 0 0 0 0 0 0 0 0 0 0 0 0 0 0 0 0 0 0 0 0 0 0
0 0 0 0 0 0 0 0 0 0 0 0 0 0 0 0 0 0 0 0 0 0 0 0 0 0 0 0 0 0 0 0 0 0 0 0 0 0 0 0 0 0 0
0 0 0 0 0 0 0 0 0 0 0 0 0 0 0 0 0 0 0 0 0 0 0 0 0 0 0 0 0 0 0 0 0 0 0 0 0 0 0 0 0 0 0
Wind_Speed
1 2 2 2 2 2 2 2 2 3 3 2 2 2 2 2 2 2 3 4 4 4 3 3 3 3 3 3 4 4 4 4 4 3 3 3 2 2 2 2 2 2 3
1 1 2 2 2 2 2 2 2 2 2 2 2 1 2 1 1 2 3 4 4 4 3 4 3 4 3 4 4 4 3 3 3 3 3 3 3 1 2 2 2 3 3
1 0 1 1 2 2 2 2 2 2 2 3 1 1 1 1 1 2 3 3 4 3 3 4 3 4 3 3 4 4 3 3 3 3 3 3 3 4 2 2 2 3 3
1 1 1 1 2 2 2 2 2 3 3 2 1 1 1 2 2 2 2 3 3 3 3 3 3 3 3 4 4 4 4 3 3 2 2 3 4 4 4 2 2 4 4
1 0 1 1 1 2 2 2 2 3 3 2 2 1 1 1 1 2 3 2 2 3 4 3 3 3 3 3 4 4 4 3 3 3 3 3 3 4 5 5 5 4 3
1 0 1 2 2 2 2 2 2 3 3 3 2 2 2 2 2 3 3 3 2 3 4 4 3 3 3 4 4 3 4 3 3 3 3 3 3 3 4 6 6 6 4
0 1 1 2 2 3 3 2 2 2 3 3 2 2 2 2 2 2 3 3 3 3 4 4 4 3 4 4 4 3 3 3 3 3 3 3 3 4 5 5 6 7 5
0 0 1 1 2 2 3 3 2 3 3 3 2 2 2 1 1 2 2 3 3 3 4 3 3 4 4 4 4 3 3 3 3 3 4 3 3 3 4 5 5 7 6
0 1 1 1 1 2 2 2 2 3 3 3 2 2 2 2 2 2 2 2 2 3 3 3 3 4 4 3 3 2 3 3 3 3 4 4 3 4 4 4 4 5 7
1 1 1 1 1 1 2 2 2 2 2 2 2 2 2 2 2 2 2 2 3 3 3 3 4 4 3 3 3 3 3 3 4 4 4 4 4 4 3 3 4 4 6
1 1 1 1 1 1 1 2 2 2 2 2 2 2 2 2 2 1 2 2 2 3 3 3 4 4 4 3 3 3 3 3 4 4 4 4 5 4 4 4 4 4 5
1 1 1 1 1 1 1 1 1 2 2 2 2 2 2 2 2 2 2 2 2 2 2 3 3 3 4 4 3 4 4 4 4 4 4 5 4 5 5 4 5 5 5
1 1 1 1 1 1 1 1 1 1 2 1 1 1 1 2 2 2 2 2 2 2 2 3 3 3 3 3 3 4 4 4 4 4 5 5 5 6 5 6 5 5 6
2 2 2 2 1 1 1 1 2 1 1 1 1 1 1 2 2 2 2 2 2 2 2 2 2 3 3 3 3 4 4 4 4 4 5 5 5 6 7 6 6 6 7
3 3 3 2 2 2 2 2 2 1 1 1 1 2 2 2 2 2 2 2 2 2 2 2 2 3 3 3 4 3 4 4 4 4 5 5 6 7 7 6 7 7 6
4 4 3 3 3 2 2 2 2 1 1 1 2 2 2 2 2 2 2 2 2 2 2 2 3 3 3 5 5 4 4 4 4 4 5 5 5 6 8 9 9 9 7
5 4 4 4 3 3 3 3 2 1 1 2 2 2 2 2 2 2 2 2 2 2 2 2 3 3 3 5 5 5 4 4 4 4 5 4 5 6 6 8 9 8 9
5 4 4 3 3 2 2 2 1 1 1 2 2 2 2 2 2 2 2 2 2 2 2 2 3 3 3 5 5 5 4 3 4 4 5 5 6 6 8 8 8 8 8
5 4 3 3 2 2 2 1 1 1 1 2 2 2 2 2 2 2 3 2 2 2 2 2 2 3 4 5 6 6 3 3 4 4 4 5 6 9 11 8 8 8 8
3 3 2 2 2 2 2 2 2 2 3 3 3 2 2 2 2 3 2 2 2 2 2 2 2 3 4 5 6 6 3 3 4 4 4 5 7 10 11 8 7 8 9
3 3 2 2 2 2 2 2 2 3 3 2 2 2 2 2 2 1 1 1 1 1 1 2 2 3 4 5 6 6 3 3 4 4 4 4 8 10 11 9 7 9 10
3 3 3 2 2 2 3 3 4 3 1 1 1 1 2 1 1 1 1 1 1 1 2 2 3 2 3 4 5 6 6 5 4 4 4 5 9 10 11 8 9 12 10
4 3 4 3 2 2 3 4 3 1 1 1 1 1 1 1 1 1 1 1 1 1 1 2 2 3 2 3 5 6 6 7 4 4 6 8 9 9 7 9 11 8 6
4 4 4 4 4 3 4 4 2 2 2 2 2 1 1 1 1 1 1 1 1 2 2 2 3 3 3 3 3 3 3 4 4 4 5 7 8 7 7 6 6 5 5
4 4 5 5 5 3 3 3 2 3 3 3 2 2 2 2 1 1 2 2 2 2 3 3 3 3 4 4 5 4 3 3 3 3 3 3 4 4 4 4 4 5 5
5 5 5 5 5 4 4 3 3 4 4 3 3 2 2 2 2 2 2 3 3 3 4 4 4 4 5 7 6 6 6 6 5 3 3 4 4 4 5 5 5 5 5
Wind_Direction
114 67 44 39 46 39 35 28 19 16 13 7 359 8 3 11 22 23 24 20 16 10 4 359 352 349 345 340 334 327 330 334 327 299 294 277 264 274 302 313 315 321 328
137 73 41 33 30 23 20 18 5 3 1 351 344 343 331 343 15 19 17 17 14 8 4 0 352 347 338 344 343 334 317 327 340 314 298 289 258 247 304 307 313 322 325
207 206 13 19 21 11 356 4 357 345 352 358 5 21 20 347 358 1 3 7 3 7 6 354 349 343 339 338 339 333 320 314 325 333 313 305 306 315 281 307 315 327 323
235 282 347 6 10 353 346 4 2 1 5 3 354 338 338 338 343 344 349 357 5 3 1 354 348 343 342 341 338 337 326 318 313 318 312 300 306 299 302 296 317 321 313
188 327 340 2 18 1 348 3 15 15 11 7 0 339 350 354 347 348 348 354 6 7 2 357 352 348 343 344 341 336 333 330 320 314 309 303 295 290 285 293 305 308 307
175 74 37 30 21 11 360 2 19 19 11 14 15 15 19 5 352 350 348 348 355 2 4 357 354 349 344 342 336 334 333 330 325 318 317 313 309 304 291 287 299 301 304
160 43 30 20 18 12 6 360 4 10 10 15 16 6 1 351 340 339 345 347 346 348 352 355 352 350 347 342 340 337 336 335 329 323 318 313 308 311 300 293 296 295 297
142 21 7 19 23 18 10 6 2 3 2 6 9 5 355 341 342 347 341 341 335 335 344 348 347 344 342 337 336 335 337 337 335 331 324 318 314 311 306 300 298 296 291
72 18 16 26 25 18 10 7 9 13 9 2 357 9 6 352 340 340 338 333 331 336 345 344 340 339 338 335 334 339 338 334 332 327 321 313 313 311 307 308 303 296 297
27 8 339 6 16 10 5 15 9 5 2 359 359 10 10 0 345 341 350 347 340 340 339 342 343 337 338 343 343 337 334 333 332 328 328 326 321 317 314 310 304 293 286
275 256 270 331 359 10 6 3 358 351 356 1 357 357 359 355 347 346 341 337 343 346 350 353 351 344 342 348 344 341 340 338 335 332 327 326 325 317 318 311 305 304 298
270 256 272 322 325 339 350 343 337 340 342 349 350 346 351 346 341 339 336 342 351 348 347 352 354 345 347 348 342 341 339 335 336 335 333 332 331 330 325 318 314 310 310
276 265 264 267 279 294 310 307 313 322 334 339 337 334 339 338 335 334 335 338 337 335 346 352 351 343 341 342 343 337 335 338 338 336 334 334 333 331 328 323 320 318 315
264 268 271 273 273 273 276 282 300 310 313 303 298 304 312 314 316 317 319 320 315 322 342 343 340 334 331 334 336 337 338 336 336 337 336 334 333 329 326 322 321 319 315
260 261 264 271 273 276 279 280 287 294 288 278 281 291 304 311 314 310 311 311 308 319 330 329 331 331 329 331 332 334 333 331 333 337 337 337 338 336 330 324 325 323 317
256 256 255 254 257 259 263 266 269 276 270 269 282 296 304 306 303 303 305 309 310 320 325 324 329 328 329 336 332 334 332 328 327 329 331 333 336 339 331 327 324 321 315
251 249 245 243 245 246 244 248 257 257 250 264 281 290 291 291 292 295 291 293 298 307 311 317 318 318 330 340 338 343 333 327 325 324 323 329 335 332 330 328 324 322 317
246 244 240 240 243 242 242 245 243 239 251 267 281 288 283 281 288 283 282 288 289 287 293 305 310 318 332 339 340 342 329 321 324 323 323 325 328 332 329 325 324 323 322
235 237 231 227 225 226 224 203 208 235 255 269 275 276 268 271 278 275 279 282 281 284 292 304 312 316 324 333 331 334 324 321 322 323 324 326 324 329 330 326 321 319 318
217 215 205 197 207 218 191 189 212 233 254 264 268 269 261 257 263 268 277 286 280 287 307 309 311 312 317 329 329 331 318 316 319 323 327 330 324 328 331 326 321 318 320
202 192 190 200 217 201 180 200 223 243 257 265 265 268 265 260 263 274 291 294 289 301 301 304 313 313 314 323 327 327 320 313 314 317 321 327 330 328 330 328 320 318 321
207 196 196 210 217 190 191 214 238 256 258 241 246 260 270 268 259 261 289 287 279 288 297 308 311 311 313 316 323 324 320 316 309 310 315 321 328 329 330 329 328 331 329
219 205 203 210 218 204 206 224 246 244 207 206 231 253 279 278 271 246 248 261 257 270 289 297 302 309 315 318 319 317 319 320 312 313 318 322 327 329 330 333 334 333 327
213 201 197 212 224 213 212 229 235 192 194 210 223 224 232 248 256 255 245 245 246 254 270 282 291 301 307 310 315 315 316 319 319 323 327 326 325 324 327 330 334 332 327
209 199 207 219 227 217 218 221 208 190 200 210 215 220 226 236 239 238 243 243 250 249 261 274 282 291 297 306 314 317 318 324 328 328 317 316 321 323 324 326 327 325 323
204 205 214 220 223 214 218 213 201 197 199 207 212 215 221 227 236 245 270 268 266 286 277 284 290 292 297 315 315 316 321 321 327 323 309 313 316 316 318 318 319 321 322